This is the latest recevied weather packets stored in our database for station/object N7ZAP. If no packets are shown the sender has not sent any weather packets the latest 10 day(s).
| Time | Temp. | Humidity | Pressure | Rain* | Wind** | Luminosity | Snow |
|---|---|---|---|---|---|---|---|
| 1788440557 | 18.89° C | 47% | 1021 hPa | 0 mm | - | - | - |
| 1788440256 | 18.89° C | 48% | 1021 hPa | 0 mm | - | - | - |
| 1788439951 | 18.89° C | 45% | 1020.7 hPa | 0 mm | - | - | - |
| 1788439651 | 19.44° C | 46% | 1020.7 hPa | 0 mm | - | - | - |
| 1788439346 | 19.44° C | 45% | 1020.9 hPa | 0 mm | - | - | - |
| 1788439044 | 19.44° C | 43% | 1020.7 hPa | 0 mm | - | - | - |
| 1788438744 | 20° C | 43% | 1020.7 hPa | 0 mm | - | - | - |
| 1788438443 | 20° C | 40% | 1020.7 hPa | 0 mm | - | - | - |
| 1788438138 | 20.56° C | 42% | 1020.7 hPa | 0 mm | - | - | - |
| 1788437836 | 20.56° C | 41% | 1020.5 hPa | 0 mm | - | - | - |
| 1788437533 | 20.56° C | 40% | 1020.4 hPa | 0 mm | - | - | - |
| 1788437232 | 20.56° C | 41% | 1020.5 hPa | 0 mm | - | - | - |
| 1788436926 | 21.11° C | 40% | 1020.7 hPa | 0 mm | - | - | - |
| 1788436625 | 21.11° C | 40% | 1020.5 hPa | 0 mm | - | - | - |
| 1788436320 | 21.11° C | 38% | 1020.5 hPa | 0 mm | - | - | - |
| 1788436015 | 21.11° C | 38% | 1020.3 hPa | 0 mm | - | - | - |
| 1788435710 | 20.56° C | 40% | 1020.2 hPa | 0 mm | - | - | - |
| 1788435405 | 20.56° C | 40% | 1020.4 hPa | 0 mm | - | - | - |
| 1788435101 | 21.11° C | 38% | 1019.8 hPa | 0 mm | - | - | - |
| 1788434798 | 21.11° C | 37% | 1020.1 hPa | 0 mm | - | - | - |
| 1788434498 | 21.11° C | 36% | 1020.2 hPa | 0 mm | - | - | - |
| 1788434197 | 21.11° C | 35% | 1020.2 hPa | 0 mm | - | - | - |
| 1788433893 | 21.67° C | 37% | 1020.1 hPa | 0 mm | - | - | - |
| 1788433589 | 21.67° C | 37% | 1020.1 hPa | 0 mm | - | - | - |
| 1788433284 | 21.67° C | 39% | 1020.1 hPa | 0 mm | - | - | - |
* Rain latest hour (hover to see other rain measurements)
** Current wind speed in m/s (hover to see current wind gust speed)